Wind_Speed
31 30 30 29 29 30 30 30 31 33 33 33 32 32 31 31 29 28 27 27 26 24 24 25 25 26 27 26 26 26 25 25 25 26 28 29 31 33 34 35 36 36 36 35
31 31 30 31 31 31 31 31 32 33 35 37 37 36 35 35 34 33 32 32 30 29 28 28 28 28 28 28 28 28 28 28 28 29 30 31 33 34 37 39 39 38 36 32
32 32 32 31 32 32 32 31 32 35 37 37 38 38 39 39 38 37 36 36 35 34 32 31 31 31 30 29 29 30 30 31 31 32 32 34 35 36 38 38 39 37 34 33
32 33 33 32 32 32 32 32 33 34 36 37 39 38 39 41 41 41 40 39 38 37 35 34 33 32 31 31 31 32 32 33 34 34 34 35 37 38 39 40 38 36 33 32
31 32 32 32 31 32 32 32 33 34 35 37 38 38 35 40 40 41 41 40 39 38 36 35 34 33 32 32 32 33 34 35 35 36 37 38 39 39 39 39 38 36 34 33
30 31 31 31 31 31 31 32 33 34 34 36 36 36 33 39 39 39 39 39 38 37 35 34 34 33 33 33 34 35 36 37 37 38 38 39 39 39 40 40 39 38 37 35
28 29 29 30 30 30 30 30 30 30 32 32 33 34 34 39 36 36 36 35 34 34 33 33 33 33 33 33 34 34 36 37 37 38 39 39 39 40 41 40 40 39 38 37
21 21 24 26 26 28 28 28 27 24 23 23 30 30 35 36 33 32 32 31 30 30 30 30 29 29 30 31 32 33 35 36 37 38 39 39 40 41 41 41 41 41 41 41
16 17 21 23 24 26 27 27 26 26 25 23 22 29 34 32 31 30 29 28 27 27 26 26 26 26 27 29 31 33 34 36 37 38 39 40 41 42 42 42 44 44 44 44
14 14 16 19 22 24 25 25 27 28 26 23 22 25 27 29 29 28 27 26 25 25 25 25 26 27 27 29 31 32 34 36 37 39 40 41 43 43 43 44 45 46 46 47
13 14 14 16 18 19 22 25 26 26 25 23 21 22 27 26 26 25 24 24 24 24 25 25 27 28 29 30 32 34 35 37 38 40 42 43 44 44 45 47 48 48 49 50
13 14 15 16 18 20 21 23 24 25 26 27 23 25 28 26 25 24 24 24 24 24 25 27 29 30 31 33 34 36 37 39 40 42 44 45 46 47 49 50 51 52 53 53
14 15 15 16 19 21 23 24 25 26 25 25 24 28 29 27 27 26 26 26 27 27 29 30 31 32 34 35 36 38 39 41 43 44 45 47 48 50 51 53 54 55 55 55
16 17 17 17 19 22 23 25 26 26 24 24 26 30 31 30 30 30 30 30 30 31 32 34 35 36 37 39 40 41 42 44 45 46 47 49 50 52 53 54 55 56 56 56
17 18 19 20 21 23 24 25 26 28 28 28 29 31 32 33 33 33 34 34 34 35 35 37 38 39 41 42 43 44 45 46 47 48 49 51 52 53 54 54 55 55 55 55
18 19 19 21 21 22 23 25 26 28 30 31 32 33 34 34 35 36 36 36 37 37 37 38 39 40 42 42 43 44 44 45 47 49 50 51 51 52 53 53 54 54 54 54
17 18 20 21 22 22 23 25 27 29 30 31 33 35 35 36 36 36 37 37 38 39 39 40 40 41 41 42 42 44 45 47 48 49 49 49 50 51 52 52 52 53 52 52
17 18 19 20 22 22 24 25 26 28 29 31 32 33 34 34 35 36 36 35 36 36 37 38 39 40 40 41 42 44 45 46 47 47 48 48 49 49 50 50 50 49 49 49
16 17 18 18 20 22 24 23 24 25 27 29 30 30 31 32 33 34 34 34 35 36 37 37 38 39 39 41 42 43 44 45 46 46 46 46 46 47 47 47 46 46 46 47
14 15 16 17 18 21 22 20 20 21 24 24 25 26 27 28 30 31 31 32 33 33 35 36 37 37 39 40 41 42 43 43 43 43 44 44 44 44 44 44 44 44 45 45
13 13 13 15 17 19 19 17 18 20 22 22 22 23 25 26 28 29 29 30 31 32 33 34 35 36 37 38 39 40 40 40 41 41 41 41 42 42 42 42 43 43 44 44
12 12 12 13 15 16 16 16 17 19 20 20 21 22 23 24 25 26 27 28 29 30 31 32 34 35 35 36 36 37 38 38 38 38 38 39 39 40 41 41 42 42 43 43
11 11 12 13 14 15 15 15 17 17 18 19 19 21 22 23 24 24 25 26 27 28 30 31 32 32 32 33 33 34 34 35 35 35 36 37 39 39 40 40 40 40 39 38
11 11 11 12 13 14 14 14 15 15 16 17 18 19 20 21 22 23 24 24 25 26 27 28 28 29 29 30 31 31 31 32 33 35 36 37 38 38 38 37 36 34 33 30
11 10 10 11 12 13 13 14 15 16 16 17 18 19 19 20 20 20 20 21 22 23 24 25 25 26 26 27 28 29 30 32 33 35 35 36 35 34 31 30 28 27 25 23
10 9 9 10 11 12 13 14 14 14 15 16 16 17 17 18 18 18 19 20 20 20 21 21 22 22 23 25 27 29 31 31 31 32 31 30 28 26 24 23 21 20 18 16
Wind_Direction
239 241 242 242 240 238 237 235 234 236 240 240 241 241 242 244 246 247 250 253 256 260 264 264 266 268 270 271 271 272 274 277 280 283 287 288 291 292 293 293 295 296 294 290
238 240 240 241 240 240 239 237 236 237 239 239 242 244 245 247 249 251 253 255 258 261 263 266 268 269 269 268 268 270 272 274 277 280 285 289 291 294 297 298 301 300 300 294
237 238 239 239 240 239 239 238 236 236 239 241 244 247 250 251 252 253 255 257 260 262 264 265 266 267 267 266 266 267 269 272 275 279 284 287 289 292 295 298 300 303 307 303
235 238 238 238 239 239 239 238 237 238 239 241 244 243 248 251 253 255 257 259 261 263 264 264 265 265 265 263 263 265 267 270 274 277 280 284 286 290 294 299 302 306 310 309
235 237 238 238 238 238 238 238 238 239 240 241 246 245 247 253 253 255 257 260 262 264 264 263 263 263 262 261 261 262 265 268 272 275 278 281 286 289 292 297 301 305 308 310
233 236 236 236 237 238 238 239 240 241 242 243 245 247 245 251 253 255 258 260 262 263 263 262 262 261 259 258 259 260 263 267 270 273 277 279 282 286 290 294 299 302 304 305
232 235 237 237 238 239 239 239 241 243 244 247 246 247 244 251 254 255 257 259 261 262 262 261 260 259 258 257 258 259 261 264 268 271 274 277 280 285 289 293 296 300 301 303
235 238 239 239 239 239 240 239 237 237 244 247 251 248 248 253 255 256 257 259 260 261 261 261 260 259 257 255 255 257 260 263 267 271 274 277 281 284 288 291 295 298 299 300
235 237 240 242 240 238 237 237 236 237 237 236 244 250 252 253 255 257 258 259 259 259 258 257 257 256 255 254 255 257 260 263 267 270 274 278 281 285 288 291 293 296 298 299
227 232 236 239 240 239 236 235 236 236 236 240 245 255 258 255 256 258 259 260 259 257 255 255 255 255 255 256 257 259 261 264 268 271 275 279 282 285 289 292 294 295 297 298
228 231 235 237 237 238 236 234 236 236 235 237 243 250 254 257 258 259 259 258 257 256 256 256 257 257 257 259 260 263 265 267 270 273 276 280 283 286 289 292 294 296 296 297
237 236 237 239 238 233 235 235 236 236 239 240 237 248 254 257 258 259 259 259 258 258 259 259 260 261 262 264 265 267 269 271 274 276 279 282 285 287 290 292 294 295 296 296
244 243 245 248 245 238 235 234 234 237 239 244 244 249 253 256 257 258 260 260 260 260 262 263 264 265 267 268 269 271 273 275 277 280 282 284 285 288 289 291 292 294 294 295
249 248 243 240 242 245 242 239 238 238 241 248 248 249 253 256 257 259 260 261 262 263 265 266 268 269 270 272 273 274 276 278 280 282 284 285 286 287 289 291 292 292 293 294
255 255 253 250 248 248 246 242 241 241 241 243 248 252 256 257 259 260 261 263 264 265 266 269 270 271 273 274 275 277 279 281 282 283 284 285 286 288 289 290 291 292 293 293
261 259 258 256 253 251 250 247 246 246 246 247 250 253 256 258 259 261 263 264 266 268 269 271 273 275 277 278 279 281 283 284 284 284 285 287 288 289 289 290 291 292 292 293
263 261 258 257 256 254 254 252 252 252 252 252 253 254 255 257 258 261 263 265 267 270 272 274 276 277 278 280 282 283 283 283 285 286 287 288 288 289 290 290 291 292 292 292
265 261 259 256 256 255 255 258 256 255 257 256 257 259 260 260 261 262 264 266 268 270 272 273 275 277 278 279 280 282 283 285 286 288 288 289 289 290 290 291 291 291 291 291
276 269 263 260 259 261 260 258 257 257 257 257 257 259 261 261 263 265 267 267 269 272 274 276 277 279 280 280 282 284 286 287 288 289 289 290 290 290 291 291 291 291 291 292
285 278 270 265 262 262 264 261 260 261 261 260 259 259 260 261 262 264 266 267 270 273 274 275 277 279 280 282 284 286 288 289 290 291 291 291 291 291 291 292 292 292 293 293
292 283 274 270 267 266 266 265 262 258 258 259 259 259 259 260 262 264 265 267 270 272 274 275 277 280 283 285 287 289 290 291 292 292 292 293 293 293 293 294 294 295 295 295
294 287 279 272 268 267 268 262 257 258 259 260 261 260 260 261 262 264 266 268 271 274 276 279 282 284 286 288 290 291 291 292 293 293 294 294 294 295 295 296 296 297 297 297
294 287 280 276 272 272 271 263 258 259 261 261 262 264 266 266 267 269 271 273 276 279 282 284 286 288 290 291 292 292 294 294 295 296 296 297 297 298 298 299 299 299 299 299
299 291 284 278 273 274 274 269 263 262 262 262 265 268 268 269 269 271 273 276 280 283 285 287 289 290 292 293 294 296 297 298 299 300 300 300 300 301 301 301 302 302 303 303
304 299 291 281 277 274 275 274 269 267 269 270 270 271 273 274 275 277 280 282 284 286 288 290 291 293 295 297 299 300 301 302 303 303 304 304 304 305 305 305 306 306 306 307
306 303 296 288 281 277 277 279 278 277 276 277 277 277 278 279 280 282 284 286 288 290 291 294 297 299 301 303 305 306 307 308 308 308 309 310 310 310 310 311 312 313 314 313
Height
5812 5816 5819 5822 5825 5828 5832 5835 5838 5840 5841 5845 5848 5851 5853 5856 5859 5862 5864 5866 5868 5869 5871 5871 5872 5872 5872 5872 5872 5871 5870 5869 5868 5866 5864 5862 5859 5857 5854 5850 5847 5844 5840 5837
5805 5809 5812 5815 5818 5821 5825 5829 5832 5834 5835 5838 5841 5844 5847 5850 5852 5855 5857 5859 5861 5863 5865 5865 5866 5866 5866 5867 5866 5866 5865 5864 5862 5860 5859 5857 5854 5852 5848 5845 5841 5838 5833 5830
5797 5801 5804 5807 5811 5815 5819 5823 5826 5828 5829 5832 5835 5839 5841 5843 5845 5848 5850 5852 5854 5855 5857 5858 5859 5859 5860 5860 5860 5860 5860 5858 5857 5855 5853 5851 5849 5846 5842 5839 5836 5832 5827 5824
5789 5793 5797 5800 5804 5808 5812 5815 5819 5821 5824 5827 5829 5833 5834 5835 5837 5839 5842 5843 5845 5847 5849 5850 5851 5852 5853 5854 5854 5854 5853 5852 5851 5849 5848 5845 5843 5840 5837 5833 5830 5826 5822 5819
5782 5786 5790 5793 5797 5801 5805 5808 5812 5814 5817 5820 5822 5826 5830 5827 5829 5831 5833 5835 5837 5839 5841 5842 5843 5844 5845 5846 5847 5847 5846 5846 5844 5843 5841 5839 5836 5833 5830 5827 5824 5821 5818 5815
5776 5779 5783 5786 5790 5794 5797 5802 5805 5807 5811 5814 5816 5819 5823 5819 5821 5823 5825 5827 5829 5831 5832 5834 5835 5836 5837 5838 5839 5839 5839 5838 5837 5835 5834 5831 5829 5826 5823 5820 5818 5815 5812 5810
5770 5773 5777 5780 5784 5787 5791 5796 5800 5802 5805 5808 5809 5811 5814 5811 5814 5816 5818 5819 5821 5822 5824 5825 5826 5828 5829 5830 5830 5830 5830 5830 5829 5827 5825 5823 5821 5818 5815 5813 5810 5807 5805 5802
5767 5770 5772 5775 5778 5782 5785 5790 5795 5799 5803 5805 5802 5804 5804 5805 5807 5809 5811 5812 5813 5814 5815 5817 5818 5819 5820 5821 5822 5822 5822 5822 5820 5819 5817 5814 5812 5810 5807 5805 5802 5799 5796 5793
5764 5767 5767 5769 5772 5776 5779 5783 5788 5791 5794 5797 5799 5796 5796 5798 5800 5802 5803 5805 5806 5807 5808 5809 5811 5812 5813 5813 5814 5814 5814 5813 5812 5810 5808 5806 5803 5801 5798 5795 5792 5789 5786 5783
5760 5762 5764 5765 5767 5770 5774 5777 5780 5783 5787 5790 5793 5792 5792 5791 5793 5795 5796 5798 5799 5800 5801 5802 5803 5804 5805 5805 5806 5805 5805 5804 5803 5801 5799 5796 5794 5791 5788 5785 5781 5778 5775 5772
5756 5759 5761 5762 5763 5766 5768 5771 5773 5777 5781 5785 5789 5791 5784 5785 5787 5789 5790 5791 5793 5794 5795 5795 5796 5796 5797 5797 5797 5797 5796 5795 5793 5791 5789 5786 5783 5780 5777 5773 5770 5766 5763 5759
5753 5755 5757 5758 5759 5761 5763 5765 5768 5771 5774 5776 5780 5784 5779 5780 5781 5782 5784 5785 5786 5787 5788 5788 5788 5788 5788 5788 5788 5787 5786 5785 5783 5781 5778 5775 5772 5769 5765 5761 5758 5754 5750 5746
5750 5752 5753 5755 5756 5756 5757 5759 5762 5765 5768 5770 5774 5776 5772 5773 5774 5776 5777 5778 5779 5780 5780 5780 5780 5779 5779 5778 5778 5777 5775 5774 5772 5769 5767 5764 5760 5757 5753 5749 5745 5741 5736 5732
5745 5747 5749 5751 5750 5751 5752 5754 5756 5759 5762 5764 5765 5766 5765 5766 5768 5769 5769 5770 5771 5771 5771 5771 5770 5770 5769 5768 5767 5766 5764 5762 5760 5757 5754 5751 5748 5744 5740 5736 5731 5727 5722 5717
5740 5741 5742 5743 5744 5745 5746 5748 5750 5752 5754 5757 5757 5757 5758 5758 5760 5760 5761 5761 5761 5761 5761 5761 5760 5759 5758 5757 5756 5754 5752 5750 5747 5745 5742 5738 5735 5730 5726 5722 5717 5712 5708 5703
5734 5735 5736 5737 5737 5738 5739 5741 5743 5744 5746 5747 5748 5749 5750 5750 5751 5751 5752 5752 5752 5751 5751 5750 5750 5749 5747 5746 5744 5742 5740 5737 5735 5732 5729 5725 5721 5717 5712 5708 5703 5698 5693 5688
5728 5729 5730 5731 5731 5732 5733 5734 5735 5736 5738 5739 5740 5741 5741 5741 5742 5742 5742 5742 5742 5742 5741 5740 5739 5738 5736 5734 5732 5730 5728 5725 5722 5718 5715 5711 5707 5703 5698 5694 5689 5684 5679 5674
5723 5723 5723 5724 5725 5726 5727 5726 5727 5728 5729 5729 5730 5731 5732 5732 5733 5733 5733 5733 5732 5732 5731 5730 5729 5727 5725 5723 5721 5719 5716 5713 5709 5705 5701 5697 5693 5689 5685 5680 5675 5670 5666 5661
5717 5717 5717 5718 5719 5719 5719 5719 5719 5720 5720 5721 5721 5722 5723 5723 5724 5724 5724 5724 5723 5722 5721 5720 5719 5717 5715 5712 5710 5707 5704 5700 5697 5693 5688 5684 5680 5676 5671 5667 5662 5657 5653 5648
5712 5711 5712 5712 5712 5713 5713 5712 5712 5714 5713 5713 5713 5714 5715 5715 5716 5716 5716 5715 5714 5713 5712 5711 5709 5707 5705 5702 5699 5696 5692 5689 5685 5680 5676 5672 5668 5663 5658 5654 5649 5644 5640 5635
5707 5707 5706 5706 5706 5705 5706 5706 5707 5708 5707 5706 5706 5707 5707 5708 5708 5708 5707 5706 5706 5705 5703 5702 5700 5697 5695 5692 5689 5685 5681 5677 5673 5669 5665 5660 5656 5651 5646 5642 5637 5632 5627 5623
5703 5702 5702 5701 5701 5702 5700 5700 5701 5701 5700 5700 5700 5700 5700 5700 5700 5700 5699 5699 5698 5696 5695 5693 5691 5688 5685 5682 5679 5675 5671 5667 5663 5659 5654 5650 5645 5640 5635 5630 5625 5620 5615 5611
5699 5698 5697 5697 5698 5696 5695 5695 5695 5694 5694 5694 5694 5694 5694 5694 5693 5693 5693 5692 5691 5689 5687 5685 5683 5680 5677 5674 5670 5667 5662 5658 5653 5649 5644 5639 5634 5629 5624 5619 5614 5609 5604 5599
5695 5694 5694 5693 5692 5691 5691 5690 5690 5690 5690 5689 5689 5689 5688 5688 5688 5687 5686 5685 5684 5682 5680 5678 5675 5673 5670 5666 5662 5658 5654 5649 5645 5640 5635 5629 5624 5619 5614 5608 5604 5599 5595 5590
5692 5691 5690 5689 5688 5687 5687 5686 5686 5685 5685 5684 5684 5683 5683 5683 5682 5681 5680 5679 5678 5676 5674 5672 5669 5666 5663 5659 5655 5651 5646 5641 5636 5631 5625 5619 5614 5609 5604 5600 5595 5591 5587 5584
5689 5688 5687 5686 5685 5684 5683 5682 5682 5681 5680 5680 5679 5679 5678 5678 5677 5676 5675 5674 5672 5671 5668 5666 5663 5660 5657 5653 5648 5644 5639 5633 5628 5622 5616 5611 5606 5602 5597 5593 5590 5586 5583 5579